LKPR Weather Reports


time (UTC)temp
C
wind
direction
speed
KPH
gust
KPH
rain 1hr
cm
rain 24hr
cm
rain mn
cm
humidity
%
barometer
mb
20260505230203 12 250 4.8 0.0 0.00 0.00 0.00 100 1006.0
20260505223202 12 350 4.8 0.0 0.00 0.00 0.00 100 1006.0
20260505221800 12 310 11.3 0.0 0.00 0.00 0.00 99
20260505220203 12 310 16.1 0.0 0.00 0.00 0.00 100 1006.0
20260505213202 12 280 25.7 0.0 0.00 0.00 0.00 93 1007.0
20260505211834 13 270 25.7 0.0 0.00 0.00 0.00 93
20260505210203 13 270 25.7 0.0 0.00 0.00 0.00 93 1006.0
20260505205402 13 260 24.1 0.0 0.00 0.00 0.00 93 1006.0
20260505205103 13 250 24.1 0.0 0.00 0.00 0.00 93 1006.0
20260505203503 16 280 16.1 0.0 0.00 0.00 0.00 77 1005.0
20260505203203 16 280 19.3 0.0 0.00 0.00 0.00 77 1005.0
20260505202202 17 290 16.1 0.0 0.00 0.00 0.00 67 1005.0
20260505202005 17 290 16.1 0.0 0.00 0.00 0.00 63 1005.0
20260505201817 17 240 22.5 0.0 0.00 0.00 0.00 59
20260505201303 17 270 16.1 0.0 0.00 0.00 0.00 63 1005.0
20260505200203 17 240 24.1 0.0 0.00 0.00 0.00 63 1005.0
20260505195102 16 250 8.0 0.0 0.00 0.00 0.00 67 1005.0
20260505193202 17 10 9.7 0.0 0.00 0.00 0.00 63 1004.0
20260505191835 17 50 14.5 0.0 0.00 0.00 0.00 55
20260505190203 17 50 11.3 0.0 0.00 0.00 0.00 55 1004.0
20260505183202 17 20 9.7 0.0 0.00 0.00 0.00 55 1004.0
20260505181819 18 110 14.5 0.0 0.00 0.00 0.00 52
20260505180202 18 110 16.1 0.0 0.00 0.00 0.00 52 1004.0
20260505173203 18 110 20.9 0.0 0.00 0.00 0.00 52 1004.0
20260505171802 20 130 22.5 0.0 0.00 0.00 0.00 49
20260505170204 20 130 20.9 0.0 0.00 0.00 0.00 49 1005.0
20260505163202 22 80 11.3 0.0 0.00 0.00 0.00 46 1004.0
20260505161901 22 80 14.5 0.0 0.00 0.00 0.00 43
20260505160203 22 90 12.9 0.0 0.00 0.00 0.00 43 1004.0
20260505153203 22 60 9.7 0.0 0.00 0.00 0.00 43 1005.0
20260505151800 22 60 11.3 0.0 0.00 0.00 0.00 35
20260505150202 22 50 11.3 0.0 0.00 0.00 0.00 40 1005.0
20260505140204 22 40 11.3 0.0 0.00 0.00 0.00 40 1006.0
20260505130203 22 30 12.9 0.0 0.00 0.00 0.00 40 1006.0
20260505123203 22 40 11.3 0.0 0.00 0.00 0.00 43 1006.0
20260505121803 22 90 14.5 0.0 0.00 0.00 0.00 40
20260505120203 22 50 11.3 0.0 0.00 0.00 0.00 43 1007.0
20260505113202 22 60 9.7 0.0 0.00 0.00 0.00 43 1007.0
20260505111802 22 10 14.5 0.0 0.00 0.00 0.00 40
20260505110201 22 60 9.7 0.0 0.00 0.00 0.00 43 1007.0
20260505101803 21 20 14.5 0.0 0.00 0.00 0.00 49
20260505100203 21 40 11.3 0.0 0.00 0.00 0.00 49 1008.0
20260505093203 20 40 11.3 0.0 0.00 0.00 0.00 52 1008.0
20260505091802 20 30 14.5 0.0 0.00 0.00 0.00 52
20260505090203 20 10 11.3 0.0 0.00 0.00 0.00 52 1008.0
20260505083203 18 40 11.3 0.0 0.00 0.00 0.00 59 1008.0
20260505081803 17 30 11.3 0.0 0.00 0.00 0.00 59
20260505080203 17 20 12.9 0.0 0.00 0.00 0.00 63 1008.0
20260505073203 17 30 9.7 0.0 0.00 0.00 0.00 67 1009.0
20260505071801 16 40 11.3 0.0 0.00 0.00 0.00 72
20260505070203 16 40 8.0 0.0 0.00 0.00 0.00 67 1008.0
20260505063202 16 350 4.8 0.0 0.00 0.00 0.00 72 1009.0
20260505061805 15 10 8.0 0.0 0.00 0.00 0.00 72
20260505060203 15 10 4.8 0.0 0.00 0.00 0.00 72 1009.0
20260505053202 13 310 11.3 0.0 0.00 0.00 0.00 76 1009.0
20260505051802 13 280 8.0 0.0 0.00 0.00 0.00 82
20260505050202 13 290 9.7 0.0 0.00 0.00 0.00 82 1009.0
20260505040203 11 280 4.8 0.0 0.00 0.00 0.00 93 1009.0
20260505033202 12 0 0.0 0.0 0.00 0.00 0.00 82 1009.0
20260505031801 12 0 3.2 0.0 0.00 0.00 0.00 87
20260505030204 12 0 3.2 0.0 0.00 0.00 0.00 82 1009.0
20260505023203 12 320 9.7 0.0 0.00 0.00 0.00 82 1009.0
20260505021801 12 320 8.0 0.0 0.00 0.00 0.00 82
20260505020203 12 310 3.2 0.0 0.00 0.00 0.00 87 1009.0
20260505013203 12 0 1.6 0.0 0.00 0.00 0.00 87 1009.0
20260505011805 12 320 8.0 0.0 0.00 0.00 0.00 82
20260505010203 12 330 4.8 0.0 0.00 0.00 0.00 87 1010.0
20260505003203 13 350 4.8 0.0 0.00 0.00 0.00 82 1010.0
20260505001802 13 50 8.0 0.0 0.00 0.00 0.00 76
20260505000204 13 70 8.0 0.0 0.00 0.00 0.00 82 1010.0
20260504233203 13 110 12.9 0.0 0.00 0.00 0.00 82 1011.0
20260504231805 16 120 19.3 0.0 0.00 0.00 0.00 67